Home   Weather   Abbotsford   Past weeks

Flag for Canada Past Weather in Abbotsford, British Columbia, Canada — Yesterday and Last 2 Weeks

Now
30 °F

Mostly cloudy.


Feels Like: 19 °F
Forecast: 27 / 32 °F
Wind: 15 mph from Northeast

Location: Abbotsford

Current Time: Dec 8, 2016 at 8:11:40 pm

Latest Report: Dec 8, 2016 at 7:00 pm


Visibility: 12 mi

Pressure: 30.04 "Hg

Humidity: 34%

Dew Point: 5 °F

Location of AbbotsfordLocation

Past Weather in Abbotsford — Graph

°F

Abbotsford Temperature Yesterday

Maximum temperature yesterday: 28 °F (at 1:00 pm)
Minimum temperature yesterday: 23 °F (at 3:00 am)
Average temperature yesterday: 25 °F

High & Low Weather Summary for the Past Weeks

 TemperatureHumidityPressure
High50 °F (Nov 24, 2:00 am)100% (Nov 24, 8:00 pm)30.52 "Hg (Nov 24, 8:00 pm)
Low23 °F (Dec 7, 3:00 am)32% (Dec 8, 12:00 pm)29.43 "Hg (Nov 27, 9:00 pm)
Average39 °F82%30.01 "Hg
* Reported Nov 23 7:00 pm — Dec 8 7:00 pm, Abbotsford, Weather by CustomWeather, © 2016

Note: Actual official high and low records may vary slightly from our data, if they occured in-between our weather recording intervals... More about our weather records

Advertising

Abbotsford Weather History for the Previous 24 Hours

Scroll right to see more
 ConditionsComfort  
Time TempWeatherWind HumidityBarometerVisibility
7:00 pm
Thu, Dec 8
30 °FMostly cloudy.15 mph34%30.04 "Hg12 mi
6:00 pm30 °FPartly cloudy.17 mph37%30.05 "Hg12 mi
5:00 pm30 °FPartly cloudy.17 mph37%30.06 "Hg30 mi
4:00 pm30 °FPartly sunny.18 mph37%30.06 "Hg30 mi
3:00 pm32 °FBroken clouds.21 mph34%30.06 "Hg30 mi
2:00 pm32 °FBroken clouds.23 mph34%30.10 "Hg30 mi
1:00 pm32 °FPartly sunny.21 mph34%30.12 "Hg30 mi
12:00 pm32 °FPartly sunny.26 mph32%30.16 "Hg30 mi
11:00 am30 °FScattered clouds.21 mph34%30.18 "Hg30 mi
10:00 am28 °FPassing clouds.21 mph37%30.21 "Hg30 mi
9:00 am25 °FPassing clouds.16 mph42%30.23 "Hg30 mi
8:00 am23 °FPassing clouds.21 mph46%30.23 "Hg30 mi
7:00 am23 °FPassing clouds.22 mph46%30.25 "Hg20 mi
6:00 am23 °FPassing clouds.28 mph46%30.27 "Hg15 mi
5:00 am23 °FClear.21 mph42%30.30 "Hg15 mi
4:00 am23 °FPassing clouds.22 mph46%30.32 "Hg15 mi
3:00 am23 °FPassing clouds.22 mph46%30.33 "Hg15 mi
2:00 am23 °FClear.24 mph46%30.34 "Hg15 mi
1:00 am23 °FClear.18 mph46%30.37 "Hg15 mi
12:00 am23 °FClear.22 mph46%30.38 "Hg15 mi
11:00 pm
Wed, Dec 7
25 °FClear.16 mph42%30.40 "Hg15 mi
10:00 pm25 °FClear.17 mph42%30.41 "Hg15 mi
9:00 pm25 °FClear.21 mph42%30.41 "Hg15 mi
8:00 pm25 °FClear.21 mph42%30.42 "Hg15 mi
Weather by CustomWeather, © 2016

See weather overviewHow to use our weather pages